Location: Boissi�res
(45.2500°N, 2.3667°E)
Time: 21:08:03
(UTC+00:00)

Okean-O - Pass Details

Date: 03 March 2021
Orbit: 639 x 640 km, 98.2° (Epoch: 17 April)

Event Time Altitude Azimuth Distance (km) Brightness Sun altitude
Rises 18:21:17 0° 159° (SSE) 2,933 5.8 -8.0°
Reaches altitude 10° 18:23:29 10° 157° (SSE) 2,028 5.0 -8.3°
Maximum altitude 18:27:53 71° 74° (ENE) 682 2.6 -9.1°
Drops below altitude 10° 18:32:19 10° 351° (N) 2,044 5.4 -9.9°
Sets 18:34:32 0° 349° (N) 2,957 6.2 -10.3°
